Location: Aragnouet
(42.7874°N, 0.2165°E)
Time: 11:13:23
(UTC+00:00)

ATLAS 5 CENTAUR R/B - Pass Details

Date: 09 April 2020
Orbit: 543 x 1116 km, 63.4° (Epoch: 01 May)

Event Time Altitude Azimuth Distance (km) Brightness Sun altitude
Rises 19:57:04 0° 229° (SW) 2,714 5.2 -15.0°
Reaches altitude 10° 19:59:13 10° 234° (SW) 1,853 4.4 -15.4°
Maximum altitude 20:03:15 51° 311° (NW) 760 2.4 -16.1°
Drops below altitude 10° 20:07:45 10° 28° (NNE) 2,078 4.3 -16.8°
Sets 20:10:18 0° 33° (NNE) 3,085 5.1 -17.2°
